FFT2326 KLAX-KLAS

Flight info

Callsign FFT2326
Flight time 0h 45m
Altitude 29000
Route OSHNN1 MISEN RNDRZ4
Aircraft A20N/M-SDE2E3FGHIRWXY/LB1

Departure

Time 2026-05-04 07:12
Airport Los Angeles International Airport (KLAX)

Arrival

Time 2026-05-04 07:57
Airport Harry Reid International Airport (KLAS)
Time Latitude Longitude Altitude Speed Heading
2026-05-04 06:57 33.94093 -118.40379 130 ft 0 kts 263°
2026-05-04 06:58 33.94094 -118.40374 130 ft 2 kts 263°
2026-05-04 06:59 33.94096 -118.40358 130 ft 2 kts 263°
2026-05-04 06:59 33.94097 -118.40345 129 ft 0 kts 263°
2026-05-04 06:59 33.94099 -118.40333 129 ft 2 kts 226°
2026-05-04 06:59 33.94112 -118.40325 129 ft 0 kts 178°
2026-05-04 07:01 33.94120 -118.40327 129 ft 0 kts 173°
2026-05-04 07:02 33.94116 -118.40327 129 ft 1 kts 173°
2026-05-04 07:02 33.94095 -118.40324 129 ft 5 kts 174°
2026-05-04 07:03 33.94051 -118.40317 129 ft 9 kts 173°
2026-05-04 07:03 33.93980 -118.40309 128 ft 13 kts 175°
2026-05-04 07:03 33.93937 -118.40234 126 ft 16 kts 85°
2026-05-04 07:03 33.93949 -118.40100 125 ft 20 kts 86°
2026-05-04 07:04 33.93965 -118.39934 123 ft 22 kts 81°
2026-05-04 07:04 33.93985 -118.39755 122 ft 25 kts 83°
2026-05-04 07:04 33.94006 -118.39565 115 ft 26 kts 83°
2026-05-04 07:04 33.94024 -118.39373 112 ft 25 kts 83°
2026-05-04 07:05 33.94044 -118.39189 110 ft 23 kts 83°
2026-05-04 07:05 33.94053 -118.39097 109 ft 0 kts 83°
2026-05-04 07:06 33.94055 -118.39083 109 ft 2 kts 83°
2026-05-04 07:06 33.94054 -118.39056 109 ft 4 kts 98°
2026-05-04 07:06 33.94036 -118.39027 109 ft 5 kts 141°
2026-05-04 07:07 33.94003 -118.38996 109 ft 7 kts 138°
2026-05-04 07:08 33.94051 -118.38322 104 ft 16 kts 84°
2026-05-04 07:09 33.94064 -118.38191 103 ft 17 kts 83°
2026-05-04 07:09 33.94076 -118.38065 103 ft 11 kts 84°
2026-05-04 07:09 33.94042 -118.38006 102 ft 6 kts 194°
2026-05-04 07:09 33.94009 -118.38002 102 ft 6 kts 173°
2026-05-04 07:10 33.93979 -118.38023 102 ft 6 kts 261°
2026-05-04 07:10 33.93978 -118.38066 102 ft 0 kts 265°
2026-05-04 07:12 33.93446 -118.43321 1711 ft 195 kts 262°
2026-05-04 07:12 33.93279 -118.44818 2297 ft 207 kts 260°
2026-05-04 07:12 33.92828 -118.46364 2797 ft 219 kts 240°
2026-05-04 07:12 33.92019 -118.47740 3382 ft 226 kts 233°
2026-05-04 07:13 33.91112 -118.49101 3957 ft 231 kts 232°
2026-05-04 07:13 33.90163 -118.50451 4530 ft 232 kts 231°
2026-05-04 07:13 33.89211 -118.51777 5095 ft 233 kts 231°
2026-05-04 07:14 33.84547 -118.56155 7386 ft 259 kts 179°
2026-05-04 07:14 33.82968 -118.55817 7942 ft 266 kts 168°
2026-05-04 07:15 33.81414 -118.55354 8476 ft 268 kts 169°
2026-05-04 07:15 33.79819 -118.54875 9027 ft 269 kts 170°
2026-05-04 07:15 33.78216 -118.54417 9558 ft 270 kts 171°
2026-05-04 07:15 33.76619 -118.53974 9888 ft 271 kts 172°
2026-05-04 07:16 33.74995 -118.53535 10235 ft 278 kts 171°
2026-05-04 07:16 33.73311 -118.53082 10741 ft 289 kts 172°
2026-05-04 07:16 33.71541 -118.52508 11077 ft 308 kts 161°
2026-05-04 07:16 33.69895 -118.51223 11358 ft 334 kts 140°
2026-05-04 07:17 33.68661 -118.49127 11636 ft 360 kts 118°
2026-05-04 07:17 33.67919 -118.46646 12101 ft 372 kts 112°
2026-05-04 07:17 33.67235 -118.44077 12702 ft 377 kts 112°
2026-05-04 07:17 33.66537 -118.41505 13331 ft 379 kts 113°
2026-05-04 07:18 33.65800 -118.38909 13915 ft 383 kts 114°
2026-05-04 07:18 33.65072 -118.36240 14419 ft 391 kts 110°
2026-05-04 07:18 33.64569 -118.33418 14866 ft 401 kts 103°
2026-05-04 07:18 33.64362 -118.30468 15383 ft 409 kts 96°
2026-05-04 07:19 33.64352 -118.27481 15869 ft 416 kts 94°
2026-05-04 07:19 33.64393 -118.24384 16371 ft 421 kts 93°
2026-05-04 07:19 33.64482 -118.21195 16877 ft 427 kts 88°
2026-05-04 07:19 33.65178 -118.18044 17297 ft 439 kts 65°
2026-05-04 07:20 33.66742 -118.15287 17716 ft 443 kts 43°
2026-05-04 07:20 33.68900 -118.13150 18217 ft 442 kts 30°
2026-05-04 07:20 33.71215 -118.11325 18674 ft 446 kts 28°
2026-05-04 07:20 33.73571 -118.09504 19094 ft 453 kts 29°
2026-05-04 07:22 33.90376 -117.94732 22397 ft 482 kts 33°
2026-05-04 07:22 33.92852 -117.92496 22811 ft 486 kts 33°
2026-05-04 07:23 33.95402 -117.90163 23191 ft 492 kts 32°
2026-05-04 07:23 33.97897 -117.87873 23580 ft 495 kts 33°
2026-05-04 07:23 34.00407 -117.85579 23936 ft 500 kts 32°
2026-05-04 07:23 34.02932 -117.83263 24329 ft 503 kts 31°
2026-05-04 07:24 34.05434 -117.80969 24704 ft 506 kts 32°
2026-05-04 07:24 34.07944 -117.78493 25067 ft 512 kts 38°
2026-05-04 07:24 34.10324 -117.75740 25428 ft 519 kts 44°
2026-05-04 07:24 34.12508 -117.72761 25809 ft 522 kts 47°
2026-05-04 07:25 34.14570 -117.69677 26269 ft 522 kts 49°
2026-05-04 07:26 34.29310 -117.47501 28736 ft 537 kts 47°
2026-05-04 07:27 34.31464 -117.44290 28954 ft 540 kts 48°
2026-05-04 07:27 34.33650 -117.41042 28983 ft 543 kts 47°
2026-05-04 07:27 34.38046 -117.34452 28969 ft 542 kts 49°
2026-05-04 07:28 34.42448 -117.27848 28960 ft 541 kts 48°
2026-05-04 07:28 34.46855 -117.21227 28972 ft 541 kts 49°
2026-05-04 07:29 34.51255 -117.14597 28964 ft 542 kts 48°
2026-05-04 07:29 34.55730 -117.07886 28960 ft 541 kts 47°
2026-05-04 07:30 34.60239 -117.01334 28949 ft 541 kts 47°
2026-05-04 07:30 34.64811 -116.94716 28953 ft 542 kts 47°
2026-05-04 07:31 34.69339 -116.88108 28940 ft 541 kts 48°
2026-05-04 07:33 34.87745 -116.62180 28928 ft 530 kts 37°
2026-05-04 07:33 34.93131 -116.56862 28909 ft 527 kts 31°
2026-05-04 07:34 34.98605 -116.51699 28906 ft 529 kts 32°
2026-05-04 07:34 35.04046 -116.46439 28889 ft 526 kts 32°
2026-05-04 07:35 35.06726 -116.43829 28695 ft 521 kts 32°
2026-05-04 07:35 35.09391 -116.41159 28122 ft 523 kts 36°
2026-05-04 07:35 35.11887 -116.38362 27420 ft 528 kts 41°
2026-05-04 07:35 35.14276 -116.35376 26803 ft 529 kts 43°
2026-05-04 07:36 35.16603 -116.32318 26251 ft 526 kts 45°
2026-05-04 07:36 35.18911 -116.29251 25941 ft 517 kts 44°
2026-05-04 07:38 35.34358 -116.08304 23741 ft 494 kts 46°
2026-05-04 07:38 35.36499 -116.05370 23276 ft 490 kts 45°
2026-05-04 07:38 35.38598 -116.02477 22936 ft 482 kts 45°
2026-05-04 07:38 35.40692 -115.99600 22880 ft 484 kts 45°
2026-05-04 07:39 35.42781 -115.96732 22881 ft 485 kts 46°
2026-05-04 07:39 35.44887 -115.93832 22881 ft 485 kts 46°
2026-05-04 07:39 35.46974 -115.90949 22885 ft 484 kts 46°
2026-05-04 07:39 35.49069 -115.88064 22886 ft 485 kts 46°
2026-05-04 07:40 35.51167 -115.85163 22871 ft 479 kts 45°
2026-05-04 07:40 35.53211 -115.82316 22713 ft 470 kts 45°
2026-05-04 07:40 35.55238 -115.79511 22521 ft 456 kts 46°
2026-05-04 07:40 35.57166 -115.76833 22248 ft 439 kts 46°
2026-05-04 07:41 35.59066 -115.74196 21982 ft 423 kts 45°
2026-05-04 07:41 35.60912 -115.71676 21637 ft 410 kts 45°
2026-05-04 07:41 35.62728 -115.69237 21164 ft 407 kts 45°
2026-05-04 07:41 35.64526 -115.66825 20849 ft 401 kts 46°
2026-05-04 07:42 35.66300 -115.64436 20479 ft 398 kts 45°
2026-05-04 07:42 35.68037 -115.62088 20134 ft 394 kts 45°
2026-05-04 07:42 35.69771 -115.59744 19817 ft 389 kts 45°
2026-05-04 07:42 35.71501 -115.57403 19456 ft 386 kts 44°
2026-05-04 07:43 35.73366 -115.55299 19120 ft 380 kts 34°
2026-05-04 07:43 35.75422 -115.53615 18836 ft 373 kts 27°
2026-05-04 07:43 35.77540 -115.52140 18477 ft 370 kts 25°
2026-05-04 07:43 35.79657 -115.50725 18064 ft 370 kts 25°
2026-05-04 07:44 35.81791 -115.49287 17607 ft 371 kts 26°
2026-05-04 07:44 35.83902 -115.47839 17146 ft 372 kts 27°
2026-05-04 07:44 35.86042 -115.46345 16690 ft 372 kts 27°
2026-05-04 07:44 35.88200 -115.44830 16229 ft 372 kts 28°
2026-05-04 07:45 35.90337 -115.43325 15762 ft 371 kts 28°
2026-05-04 07:45 35.92463 -115.41833 15280 ft 363 kts 28°
2026-05-04 07:45 35.94487 -115.40422 14817 ft 354 kts 29°
2026-05-04 07:45 35.96454 -115.39052 14348 ft 346 kts 29°
2026-05-04 07:46 35.98346 -115.37734 13889 ft 337 kts 30°
2026-05-04 07:46 36.00146 -115.36375 13427 ft 328 kts 41°
2026-05-04 07:46 36.01421 -115.34443 12950 ft 314 kts 70°
2026-05-04 07:46 36.01823 -115.32048 12478 ft 302 kts 98°
2026-05-04 07:47 36.01610 -115.29630 12016 ft 299 kts 101°
2026-05-04 07:47 36.01372 -115.27242 11547 ft 299 kts 101°
2026-05-04 07:47 36.01174 -115.24881 11085 ft 300 kts 100°
2026-05-04 07:49 36.00270 -115.08194 8885 ft 262 kts 97°
2026-05-04 07:49 36.00160 -115.06021 8524 ft 260 kts 98°
2026-05-04 07:49 36.00048 -115.03876 8352 ft 250 kts 98°
2026-05-04 07:50 35.99941 -115.01825 8192 ft 242 kts 98°
2026-05-04 07:50 35.99885 -114.99844 7996 ft 237 kts 95°
2026-05-04 07:50 35.99874 -114.97934 7835 ft 230 kts 95°
2026-05-04 07:50 35.99873 -114.96073 7630 ft 226 kts 95°
2026-05-04 07:51 35.99876 -114.94231 7433 ft 221 kts 93°
2026-05-04 07:51 36.00133 -114.92429 7139 ft 227 kts 63°
2026-05-04 07:51 36.01193 -114.91091 6828 ft 233 kts 33°
2026-05-04 07:51 36.02558 -114.90163 6583 ft 232 kts 26°
2026-05-04 07:52 36.04013 -114.89736 6346 ft 228 kts 350°
2026-05-04 07:52 36.05403 -114.90420 6106 ft 219 kts 323°
2026-05-04 07:52 36.06579 -114.91436 5716 ft 217 kts 319°
2026-05-04 07:52 36.07503 -114.92738 5222 ft 212 kts 284°
2026-05-04 07:53 36.07632 -114.94395 4820 ft 204 kts 262°
2026-05-04 07:54 36.07382 -115.04218 3307 ft 143 kts 266°
2026-05-04 07:55 36.07378 -115.05375 3159 ft 141 kts 266°
2026-05-04 07:55 36.07375 -115.06490 2998 ft 141 kts 267°
2026-05-04 07:55 36.07373 -115.07606 2843 ft 141 kts 268°
2026-05-04 07:55 36.07373 -115.08685 2675 ft 138 kts 268°
2026-05-04 07:56 36.07372 -115.09757 2514 ft 137 kts 267°
2026-05-04 07:56 36.07370 -115.10848 2372 ft 141 kts 267°
2026-05-04 07:56 36.07368 -115.11961 2199 ft 142 kts 268°
2026-05-04 07:56 36.07364 -115.13120 2085 ft 140 kts 268°
2026-05-04 07:57 36.07364 -115.14162 2103 ft 102 kts 269°
2026-05-04 07:57 36.07364 -115.14804 2123 ft 48 kts 270°
2026-05-04 07:57 36.07366 -115.15115 2134 ft 31 kts 274°
2026-05-04 07:57 36.07403 -115.15347 2142 ft 25 kts 288°
2026-05-04 07:58 36.07473 -115.15517 2148 ft 21 kts 302°
2026-05-04 07:58 36.07533 -115.15617 2151 ft 7 kts 314°
2026-05-04 07:58 36.07537 -115.15621 2151 ft 0 kts 315°
2026-05-04 07:59 36.07555 -115.15644 2152 ft 7 kts 315°
2026-05-04 07:59 36.07608 -115.15710 2154 ft 15 kts 314°
2026-05-04 07:59 36.07701 -115.15809 2154 ft 21 kts 335°
2026-05-04 07:59 36.07836 -115.15824 2152 ft 21 kts
2026-05-04 08:00 36.07978 -115.15825 2147 ft 22 kts
2026-05-04 08:00 36.08119 -115.15824 2145 ft 14 kts 10°
2026-05-04 08:00 36.08160 -115.15744 2140 ft 12 kts 88°
2026-05-04 08:02 36.08406 -115.15273 2119 ft 4 kts 96°
2026-05-04 08:02 36.08408 -115.15228 2118 ft 4 kts 88°
2026-05-04 08:02 36.08408 -115.15223 2117 ft 0 kts 88°